AO-07 1 07530U 74089B 22272.49138067 -.00000044 00000-0 13527-4 0 9997 2 07530 101.9171 252.7309 0011968 201.4262 273.5175 12.53657255190503 UO-11 1 14781U 84021B 22272.44148055 .00001098 00000-0 13847-3 0 9996 2 14781 97.6280 255.1959 0008027 351.3027 8.8047 14.83826143 55466 LO-19 1 20442U 90005G 22272.48141955 .00000144 00000-0 69276-4 0 9991 2 20442 98.8067 238.9918 0010951 219.6019 140.4366 14.33089229708006 HUBBLE 1 20580U 90037B 22272.22251126 .00002917 00000-0 15987-3 0 9992 2 20580 28.4694 201.0353 0002655 75.3541 72.7834 15.10932260582192 MET-2/21 1 22782U 93055A 22272.47982407 .00000040 00000-0 22786-4 0 9992 2 22782 82.5454 291.6745 0023395 57.7317 50.9068 13.83860652468397 AO-27 1 22825U 93061C 22272.33615385 .00000074 00000-0 46523-4 0 9992 2 22825 98.8794 305.5322 0009493 107.3547 252.8674 14.30194011513005 IO-26 1 22826U 93061D 22272.33417126 .00000092 00000-0 52929-4 0 9993 2 22826 98.8739 305.4032 0010070 95.3242 264.9089 14.30542788513263 FO-29 1 24278U 96046B 22272.47087496 -.00000013 00000-0 22500-4 0 9996 2 24278 98.5155 281.8430 0350527 13.5656 347.4617 13.53120543289673 NOAA-15 1 25338U 98030A 22272.53479438 .00000141 00000-0 77135-4 0 9992 2 25338 98.6375 300.6772 0010233 0.6507 359.4685 14.26175122268101 GO-32 1 25397U 98043D 22272.43710683 .00000074 00000-0 51959-4 0 9991 2 25397 98.8281 223.2258 0001807 131.0014 229.1321 14.23773042258226 ISS 1 25544U 98067A 22272.52835726 .00014700 00000-0 26145-3 0 9996 2 25544 51.6449 179.6381 0002679 318.4139 214.2394 15.50391371361368 NO-44 1 26931U 01043C 22272.40161102 .00000111 00000-0 73842-4 0 9990 2 26931 67.0509 150.0860 0005827 258.4379 101.6068 14.30737454 96274 SO-50 1 27607U 02058C 22272.51370501 .00001008 00000-0 15788-3 0 9995 2 27607 64.5562 343.4293 0081629 274.5864 84.5918 14.76266846 63736 CO-55 1 27844U 03031E 22272.45889637 .00000269 00000-0 14016-3 0 9999 2 27844 98.6813 278.5867 0010257 154.8945 205.2734 14.22500603998659 CO-57 1 27848U 03031J 22272.24339086 .00000212 00000-0 11561-3 0 9998 2 27848 98.6856 278.8715 0009870 169.4791 190.6595 14.22050938998434 RS-22 1 27939U 03042A 22272.52031726 .00000907 00000-0 16885-3 0 9997 2 27939 98.2073 53.3069 0011871 236.5511 123.4569 14.67484862 16308 NOAA-18 1 28654U 05018A 22272.52807020 .00000185 00000-0 12338-3 0 9992 2 28654 98.9405 342.8407 0014760 41.1133 319.1148 14.12781557894673 CO-58 1 28895U 05043F 22271.82969070 .00001127 00000-0 22136-3 0 9997 2 28895 98.1207 41.7026 0016824 171.7925 188.3556 14.64500206902773 Falconsat-3 1 30776U 07006E 22272.45455504 .00072761 00000-0 81196-3 0 9994 2 30776 35.4293 295.2945 0002492 216.9750 143.0813 15.61599269865804 CO-65 1 32785U 08021C 22272.40525670 .00002644 00000-0 28006-3 0 9995 2 32785 97.6698 240.0413 0010940 246.4854 113.5214 14.89918586781960 AAUSAT2 1 32788U 08021F 22272.45261683 .00004876 00000-0 41455-3 0 9996 2 32788 97.5454 254.1841 0012616 124.5975 235.6440 14.98234858784003 DO-64 1 32789U 08021G 22272.32415674 .00013116 00000-0 68585-3 0 9994 2 32789 97.3340 294.9871 0008384 333.7117 26.3690 15.15957302787652 CO-66 1 32791U 08021J 22272.46677390 .00003782 00000-0 36725-3 0 9996 2 32791 97.6232 245.4882 0012008 195.4417 164.6438 14.93147894782715 RS-30 1 32953U 08025A 22272.60357867 .00000024 00000-0 10000-3 0 9994 2 32953 82.5003 119.1806 0019983 34.0624 326.1734 12.43113568651278 PRISM 1 33493U 09002B 22272.46178095 .00005874 00000-0 46851-3 0 9999 2 33493 98.2429 265.0396 0013679 195.3853 164.6955 15.00664576744572 NOAA-19 1 33591U 09005A 22272.54113605 .00000184 00000-0 12421-3 0 9991 2 33591 99.1394 308.8242 0012976 254.5253 105.4486 14.12614598703140 SRMSAT 1 37841U 11058D 22272.53089758 .00000430 00000-0 91058-4 0 9992 2 37841 19.9732 345.8006 0012056 47.8411 70.5646 14.10775156565956 HRBE 1 37855U 11061F 22272.45058440 .00012730 00000-0 53432-3 0 9995 2 37855 101.7214 86.8050 0147855 110.4224 251.2940 15.14283148596962 RS-40 1 38735U 12041C 22272.52285435 -.00000009 00000-0 -14039-3 0 9994 2 38735 82.4787 200.6072 0017425 140.6772 219.5580 12.42586833461448 ZACUBE-1 1 39417U 13066B 22272.44549773 .00002698 00000-0 33118-3 0 9992 2 39417 97.6488 239.3258 0059005 64.3538 296.3756 14.82649998478533 Delfi-N3xt 1 39428U 13066N 22272.51222297 .00003836 00000-0 59065-3 0 9995 2 39428 97.8161 202.4270 0115351 305.6737 53.3774 14.69621525473996 GOMX-1 1 39430U 13066Q 22272.46929956 .00001194 00000-0 21914-3 0 9995 2 39430 97.7992 173.6908 0150345 76.9261 284.8674 14.60382448471479 LO-74 1 39440U 13066AA 22272.43549387 .00001685 00000-0 23255-3 0 9994 2 39440 97.7365 225.6901 0078921 153.0632 207.4710 14.77286722475633 AO-73 1 39444U 13066AE 22272.38440372 .00003384 00000-0 40282-3 0 9993 2 39444 97.6366 241.6896 0057624 52.4611 308.1820 14.83798590476937 SPROUT 1 39770U 14029E 22272.30707753 .00007944 00000-0 78778-3 0 9993 2 39770 97.9503 30.0124 0009719 103.2818 256.9492 14.92022475453140 DTUSAT-2 1 40030U 14033W 22272.59375087 .00002725 00000-0 28578-3 0 9996 2 40030 97.9403 205.8144 0013197 72.9218 287.3444 14.90322438449156 EO-80 1 40032U 14033Y 22272.36647666 .00003334 00000-0 34855-3 0 9990 2 40032 97.9407 205.6006 0013194 74.8500 285.4175 14.90295414449095 HODOYOSHI-1 1 40299U 14070B 22272.45210900 .00005846 00000-0 21732-3 0 9993 2 40299 97.2345 337.5231 0013440 124.1484 3.3766 15.27817778438931 FIREBIRD FU3 1 40377U 15003B 22271.62412689 .00024169 00000-0 66375-3 0 9994 2 40377 99.0825 159.7003 0095005 35.7677 324.9873 15.32734869424212 FIREBIRD FU4 1 40378U 15003C 22272.62197467 .00027362 00000-0 74736-3 0 9998 2 40378 99.0828 161.1591 0094734 31.9640 328.7295 15.32893853424366 GRIFEX 1 40379U 15003D 22272.58181450 .00013492 00000-0 45362-3 0 9991 2 40379 99.0952 145.8185 0112602 77.6098 283.7710 15.25016395423486 XW-2A 1 40903U 15049E 22272.49211972 .00030761 00000-0 41372-3 0 9992 2 40903 97.1670 331.3993 0010115 97.8988 10.0538 15.57772080395439 XW-2C 1 40906U 15049H 22272.52461462 .00006290 00000-0 29441-3 0 9993 2 40906 97.4964 275.1870 0013740 4.7283 153.6837 15.20013161388720 XW-2D 1 40907U 15049J 22272.49754481 .00007212 00000-0 32955-3 0 9995 2 40907 97.4957 275.2395 0012433 0.7659 150.2018 15.20804456388771 LILACSAT-2 1 40908U 15049K 22272.51682403 .00003534 00000-0 18534-3 0 9993 2 40908 97.5206 272.1290 0015729 22.8398 95.2061 15.16319131388251 XW-2E 1 40909U 15049L 22272.52882416 .00011393 00000-0 45551-3 0 9992 2 40909 97.4656 280.0531 0010520 339.8204 174.2431 15.25221636389260 XW-2F 1 40910U 15049M 22272.54862461 .00011318 00000-0 45973-3 0 9999 2 40910 97.4742 279.2329 0011306 339.8993 119.1091 15.24682399389032 XW-2B 1 40911U 15049N 22272.52599618 .00007252 00000-0 33254-3 0 9990 2 40911 97.4938 275.8335 0012650 2.0173 123.2632 15.20680777388660 DCBB 1 40912U 15049P 22272.53457270 .00012763 00000-0 46839-3 0 9995 2 40912 97.4367 283.5686 0010082 298.7638 185.7351 15.28043169389634 TW-1A 1 40928U 15051D 22272.53743519 .00078484 00000-0 66924-3 0 9998 2 40928 97.0296 294.8558 0005058 26.7810 130.1440 15.69282106394505 IO-86 1 40931U 15052B 22272.45085465 .00000968 00000-0 45381-4 0 9990 2 40931 5.9949 147.1514 0012616 204.4859 155.4928 14.76868098378746 AO-85 1 40967U 15058D 22271.53123398 .00001710 00000-0 19866-3 0 4945 2 40967 64.7727 118.2513 0181636 166.6486 193.9574 14.77747615 75890 ATHENOXAT-1 1 41168U 15077C 22272.54918308 .00017703 00000-0 68801-3 0 9997 2 41168 14.9929 37.5383 0007023 266.9797 176.7579 15.23380960376198 ChubuSat-2 1 41338U 16012B 22272.56833204 .00002948 00000-0 21466-3 0 9990 2 41338 31.0027 80.8119 0013067 105.5828 254.6251 15.01703909363144 ChubuSat-3 1 41339U 16012C 22272.49011611 .00002108 00000-0 15144-3 0 9997 2 41339 31.0109 78.2215 0012884 111.7637 248.4386 15.01753652363136 Horyu-4 1 41340U 16012D 22272.46551185 .00004647 00000-0 32277-3 0 9997 2 41340 31.0049 54.5988 0012857 155.7542 204.3701 15.03874823363394 e-st@r-II 1 41459U 16025D 22272.41704734 .00011763 00000-0 48950-3 0 9999 2 41459 98.1940 85.4898 0138965 275.8680 82.6769 15.15473808353232 AAUSAT4 1 41460U 16025E 22272.47923006 .00024558 00000-0 87044-3 0 9995 2 41460 98.1831 92.7920 0116639 248.2930 110.5909 15.22782118353755 LO-87 1 41557U 16033B 22272.55969046 .00016063 00000-0 44444-3 0 9993 2 41557 97.3905 10.6036 0010167 10.9536 46.4470 15.37035033353367 NuSat2 1 41558U 16033C 22272.58991993 .00016068 00000-0 41836-3 0 9990 2 41558 97.4124 16.9262 0009761 358.7831 58.9198 15.38920386353653 Lapan A3 1 41603U 16040E 22272.53961624 .00001522 00000-0 71633-4 0 9990 2 41603 97.1982 305.0021 0013768 148.4828 9.6887 15.20917015347859 Pratham 1 41783U 16059A 22272.35758256 .00000482 00000-0 10138-3 0 9990 2 41783 97.9043 309.7067 0032852 203.4668 156.5037 14.63435652320829 TY-1 1 41844U 16066D 22272.51538160 .00014857 00000-0 47099-3 0 9991 2 41844 97.3885 284.2070 0009934 278.5443 232.8562 15.32761198327535 CAS-2T 1 41847U 16066G 22272.45691539 .00000830 00000-0 13551-3 0 9999 2 41847 98.5407 336.9736 0362131 258.6989 97.3309 14.38739758309300 EO-88 1 42017U 17008BX 22272.14309180 .00020495 00000-0 55474-3 0 9999 2 42017 97.2582 336.9048 0003880 216.0745 144.0238 15.37707985312994 CAS-4B 1 42759U 17034B 22272.47358499 .00004016 00000-0 23862-3 0 9991 2 42759 43.0174 119.0706 0010125 232.3017 202.1648 15.12571647292105 CAS-4A 1 42761U 17034D 22272.62770451 .00004168 00000-0 24657-3 0 9998 2 42761 43.0167 116.9303 0010707 234.1157 157.7368 15.12654722292133 NIUSat 1 42766U 17036B 22272.05786419 .00010056 00000-0 37090-3 0 9991 2 42766 97.1929 306.2334 0011737 325.8795 34.1689 15.27912194292615 Aalto 1 1 42775U 17036L 22272.09040478 .00008015 00000-0 30591-3 0 9994 2 42775 97.1884 305.9924 0010785 326.2802 33.7750 15.26858136292586 URSA MAIOR 1 42776U 17036M 22272.55336457 .00009250 00000-0 34530-3 0 9990 2 42776 97.1896 307.2795 0010376 322.8330 37.2190 15.27552608292690 Max Valier Sat 1 42778U 17036P 22272.33788542 .00009175 00000-0 33347-3 0 9995 2 42778 97.1947 309.9131 0009015 324.7486 35.3157 15.28448915292769 Pegasus 1 42784U 17036V 22272.05053508 .00013029 00000-0 43845-3 0 9995 2 42784 97.1888 310.7067 0008213 326.3592 33.7127 15.30876110292857 NUDATSat 1 42787U 17036Y 22272.57763697 .00024513 00000-0 67121-3 0 9995 2 42787 97.1922 316.1957 0005705 305.7136 54.3597 15.37303407293071 SUCHAI 1 1 42788U 17036Z 22272.56500731 .00017211 00000-0 53882-3 0 9999 2 42788 97.1889 313.1487 0007215 316.7094 43.3581 15.33145415293128 SKCUBE 1 42789U 17036AA 22272.55514685 .00015248 00000-0 49306-3 0 9996 2 42789 97.1892 312.4722 0007426 319.2547 40.8139 15.32133576293004 VZLUSAT 1 1 42790U 17036AB 22272.40212740 .00022707 00000-0 62698-3 0 9996 2 42790 97.1913 315.9661 0005761 305.3322 54.7384 15.37058067293199 VENTA 1 1 42791U 17036AC 22272.37386946 .00011695 00000-0 38917-3 0 9994 2 42791 97.1894 312.0815 0007321 321.9741 38.0983 15.31272868292954 Robusta 1B 1 42792U 17036AD 22272.07873985 .00015884 00000-0 50255-3 0 9999 2 42792 97.1888 312.6597 0006922 321.0990 38.9754 15.32826899292982 D-SAT 1 42794U 17036AF 22272.50918783 .00002572 00000-0 21771-3 0 9996 2 42794 97.4558 272.4724 0123978 96.6014 264.9336 14.93019037287007 TechnoSat 1 42829U 17042E 22272.50748543 .00001454 00000-0 14799-3 0 9997 2 42829 97.4095 120.5308 0014654 25.1619 335.0312 14.92080103283608 AO-91 1 43017U 17073E 22272.43548050 .00003787 00000-0 28555-3 0 9990 2 43017 97.6590 162.3484 0245592 206.8144 152.0202 14.82086941262514 PICSAT 1 43132U 18004X 22272.17617753 .00015348 00000-0 46923-3 0 9996 2 43132 97.3644 348.1167 0006691 359.3311 0.7921 15.33933809262299 AO-92 1 43137U 18004AC 22272.46108883 .00011199 00000-0 37386-3 0 9995 2 43137 97.3605 346.7592 0007077 4.6005 355.5300 15.31188327262259 TianYi 2 1 43155U 18008A 22272.53109657 .00007907 00000-0 40699-3 0 9990 2 43155 97.3427 327.6081 0016803 138.6963 327.1020 15.16559622259040 Zhou Enlai 1 43156U 18008B 22272.49516736 .00008604 00000-0 44539-3 0 9998 2 43156 97.3470 327.4815 0013908 138.6454 334.1080 15.16371106258963 TianYi 6 1 43158U 18008D 22272.40476883 .00007297 00000-0 39135-3 0 9992 2 43158 97.3431 325.1527 0013400 139.2769 233.2448 15.15178330258847 S-Net D 1 43186U 18014G 22272.49442302 .00003111 00000-0 26657-3 0 9994 2 43186 97.6483 176.2088 0009053 318.8745 41.1795 14.98240163254495 S-Net B 1 43187U 18014H 22272.49469540 .00003089 00000-0 26473-3 0 9998 2 43187 97.6481 176.1555 0009065 318.4818 41.5715 14.98238157254498 S-Net A 1 43188U 18014J 22272.29464517 .00002941 00000-0 25227-3 0 9998 2 43188 97.6485 176.0289 0009073 319.7304 40.3245 14.98236418254469 S-Net C 1 43189U 18014K 22272.49589631 .00002959 00000-0 25383-3 0 9998 2 43189 97.6480 176.1442 0009085 318.5808 41.4725 14.98235176253044 FMN 1 1 43192U 18015A 22272.60696645 .00042053 00000-0 92313-3 0 9996 2 43192 97.5471 60.9951 0009653 13.9753 116.5324 15.43880553259487 Shaonian Xing 1 43199U 18015H 22272.62355413 .00022022 00000-0 60087-3 0 9997 2 43199 97.5264 55.0958 0012406 32.1182 24.2796 15.37378292259433 SurfSat 1 43614U 18070B 22272.56888878 .00063487 00000-0 68313-3 0 9999 2 43614 93.0152 143.1406 0006731 344.7275 15.3788 15.63499445227281 CP-7 DAVE 1 43615U 18070C 22272.62515510 .00054933 00000-0 64600-3 0 9998 2 43615 93.0144 142.8912 0007754 347.7986 12.3091 15.61220678227247 ELFIN-B 1 43616U 18070D 22271.65853752 .03039273 20015-6 12090-2 0 9996 2 43616 92.9913 145.0728 0004810 220.5856 139.5085 16.23736868227667 CubeBel-1 1 43666U 18083E 22272.54079926 .00010296 00000-0 41642-3 0 9990 2 43666 97.4136 300.1229 0011618 334.6767 179.5875 15.24848924217332 Changshagaoxin 1 43669U 18083H 22272.56546274 .00009614 00000-0 40909-3 0 9997 2 43669 97.4100 295.8044 0008357 337.1281 174.3947 15.23181146217143 Ten-Koh 1 43677U 18084G 22272.35170732 .00001566 00000-0 16273-3 0 9991 2 43677 97.9787 43.4436 0014494 290.8930 69.0736 14.91333321213167 PO-101 1 43678U 18084H 22272.45078720 .00000524 00000-0 57082-4 0 9994 2 43678 97.9853 47.0306 0008914 308.4954 51.5485 14.92322365213366 IRVINE 01 1 43693U 18088D 22272.35917276 .00058129 00000-0 12136-2 0 9995 2 43693 85.0260 240.0241 0015217 86.6245 273.6750 15.45174151216225 QO-100 1 43700U 18090A 22272.56854809 .00000148 00000-0 00000-0 0 9995 2 43700 0.0192 165.0720 0002205 53.7907 19.9323 1.00271969 14073 Reaktor Hello World 1 43743U 18096AA 22272.50358665 .00017188 00000-0 48553-3 0 9991 2 43743 97.3458 352.0550 0014963 50.1204 310.1353 15.36311141213923 MinXSS-2 1 43758U 18099A 22272.41250026 .00003873 00000-0 33334-3 0 9999 2 43758 97.6157 337.8056 0012904 276.9297 83.0458 14.97881844208668 AO-95 1 43770U 18099N 22272.42046290 .00002344 00000-0 20907-3 0 9994 2 43770 97.6108 336.0461 0012590 289.3936 70.5925 14.96868735208560 RANGE-B 1 43772U 18099Q 22272.43430954 .00003436 00000-0 29843-3 0 9992 2 43772 97.6218 337.9914 0012484 273.6178 86.3617 14.97612554208596 RANGE-A 1 43773U 18099R 22272.44149300 .00002152 00000-0 19501-3 0 9990 2 43773 97.6028 334.7751 0011803 274.3351 85.6522 14.96340822208542 MOVE-II 1 43780U 18099Y 22272.48198501 .00005613 00000-0 47404-3 0 9997 2 43780 97.6164 337.5039 0010770 283.9383 76.0641 14.98452375208639 SNUSat 2 1 43782U 18099AA 22272.12280393 .00003054 00000-0 27009-3 0 9997 2 43782 97.6105 336.2451 0010652 272.3581 87.6421 14.96996151208548 SnugLite 1 43784U 18099AC 22272.47849706 .00003217 00000-0 28216-3 0 9998 2 43784 97.6078 336.2191 0012760 281.2854 78.6934 14.97263176208627 ITASat 1 1 43786U 18099AE 22272.40558216 .00003279 00000-0 28978-3 0 9999 2 43786 97.6139 337.0035 0012805 280.8189 79.1591 14.96956499208608 EAGLET 1 1 43790U 18099AJ 22272.42463918 .00001614 00000-0 14485-3 0 9999 2 43790 97.6132 337.5659 0011594 285.4434 74.5508 14.97062501208342 ESEO 1 43792U 18099AL 22272.46961715 .00001795 00000-0 16335-3 0 9999 2 43792 97.6083 336.6674 0011389 282.1723 77.8222 14.96376421208384 CSIM 1 43793U 18099AM 22272.40844203 .00005667 00000-0 47050-3 0 9996 2 43793 97.6174 338.4368 0009547 271.7171 88.2959 14.99120358208450 Astrocast 0.1 1 43798U 18099AS 22272.14211226 .00004371 00000-0 37248-3 0 9994 2 43798 97.6148 337.9246 0009850 256.8372 103.1752 14.98234195208631 JO-97 1 43803U 18099AX 22271.91809728 .00003253 00000-0 28333-3 0 9998 2 43803 97.6090 336.3188 0013101 279.6686 80.3057 14.97537462208554 Suomi 100 1 43804U 18099AY 22272.14388559 .00003219 00000-0 28118-3 0 9992 2 43804 97.6101 336.4382 0012759 281.2093 78.7695 14.97427550208593 Al Farabi 2 1 43805U 18099AZ 22272.48844225 .00003487 00000-0 29872-3 0 9992 2 43805 97.6144 337.3851 0012962 279.6386 80.3381 14.98129005208679 CHOMPTT 1 43855U 18104G 22272.55150454 .00010468 00000-0 36832-3 0 9997 2 43855 85.0369 341.6825 0014023 203.7124 156.3478 15.29094463210624 ISAT 1 43879U 18111D 22272.51711063 .00003668 00000-0 31085-3 0 9995 2 43879 97.6534 176.2259 0012357 336.3906 23.6748 14.98527115205254 UWE-4 1 43880U 18111E 22272.31011125 .00002920 00000-0 24769-3 0 9998 2 43880 97.6585 176.7880 0011603 341.2398 18.8396 14.98660928205255 Sparrow 1 43881U 18111F 22272.44948216 .00003268 00000-0 27531-3 0 9999 2 43881 97.6588 177.1943 0011889 335.8630 24.2034 14.98841178205289 Lume 1 1 43908U 18111AJ 22272.61278578 .00012366 00000-0 39813-3 0 9990 2 43908 97.1739 157.1743 0019655 64.8393 295.4886 15.32156714209333 FO-99 1 43937U 19003F 22272.03904068 .00015604 00000-0 48890-3 0 9992 2 43937 97.1224 301.4682 0020986 138.9492 221.3335 15.32944224205831 MYSat 1 1 44045U 18092F 22272.28399900 .00087584 00000-0 85058-3 0 9993 2 44045 51.6269 270.9027 0008319 103.9329 256.2592 15.65537825204074 AstroCast 0.2 1 44083U 19018F 22272.11372520 .00016398 00000-0 58465-3 0 9992 2 44083 97.3101 329.0767 0011005 117.0593 243.1772 15.28920466194316 AISTechSat 3 1 44103U 19018AB 22272.59398864 .00011321 00000-0 40185-3 0 9997 2 44103 97.2967 329.8253 0013144 123.0019 237.2486 15.29127500194553 AISat 1 1 44104U 19018AC 22272.20235918 .00009773 00000-0 26147-3 0 9996 2 44104 97.3908 355.8060 0051784 120.7462 239.8897 15.36867105195525 Prox-1 1 44339U 19036A 22272.28111866 .00004324 00000-0 92441-3 0 9996 2 44339 24.0003 257.7618 0009837 272.8897 87.0469 14.55582861173493 Oculus-ASR 1 44348U 19036K 22272.47706659 .00106946 -34927-5 82439-3 0 9997 2 44348 28.4973 188.6725 0200277 48.3998 313.3581 15.48406606180614 NO-104 1 44354U 19036R 22272.07089805 .00118305 -27973-5 84521-3 0 9996 2 44354 28.5211 174.3491 0188641 67.7941 294.2560 15.52034103180722 Move-IIb 1 44398U 19038N 22272.59843665 .00015082 00000-0 68332-3 0 9991 2 44398 97.6388 243.0903 0022048 120.8040 239.5378 15.20739450178855 SONATE 1 44400U 19038Q 22272.54755663 .00005394 00000-0 28678-3 0 9994 2 44400 97.6495 241.6340 0024313 130.3140 230.0220 15.15454380178695 BeeSat 9 1 44412U 19038AC 22272.43576962 .00009104 00000-0 44453-3 0 9990 2 44412 97.6471 242.6401 0021376 130.5117 229.7984 15.18299822178461 JAISAT-1 1 44419U 19038F 22272.45498864 .00009639 00000-0 46432-3 0 9995 2 44419 97.6477 243.5772 0020448 127.5258 232.7838 15.18772385178839 LightSail-2 1 44420U 19036AC 22272.08219376 .00152232 00000-0 13372-1 0 9996 2 44420 23.9846 165.0997 0003103 85.1786 274.9069 14.94715811172511 Taurus 1 1 44530U 19059C 22272.54197761 .00002167 00000-0 60206-3 0 9998 2 44530 98.5494 12.0904 0014250 161.1186 199.0559 14.47429367160900 Duchifat 3 1 44854U 19089C 22272.55333597 .00004370 00000-0 33548-3 0 9997 2 44854 36.9652 202.9247 0008715 340.7517 188.1222 15.01692575153589 OPS-SAT 1 44878U 19092F 22272.48422569 .00009590 00000-0 42660-3 0 9991 2 44878 97.4814 95.6672 0011668 343.1447 16.9399 15.21640977154008 TO-108 1 44881U 19093C 22272.50367169 .00000565 00000-0 78065-4 0 9995 2 44881 97.8872 350.1943 0014252 203.1146 156.9433 14.81829771150188 FloripaSat 1 1 44885U 19093G 22272.50090954 .00001961 00000-0 24478-3 0 9993 2 44885 97.8918 351.7669 0013654 208.9148 151.1324 14.83460430150276 RS-44 1 44909U 19096E 22272.40841444 .00000029 00000-0 63179-4 0 9996 2 44909 82.5239 161.2311 0218390 76.7031 285.8323 12.79715209128802 BY70-2 1 45857U 20042B 22272.51953186 .00006975 00000-0 90725-3 0 9993 2 45857 97.9506 348.4182 0011516 136.5545 223.6611 14.80926523120857 UPMSat 2 1 46276U 20061E 22272.42282212 .00004774 00000-0 23219-3 0 9994 2 46276 97.3822 340.8694 0002447 129.0200 231.1253 15.18870503114655 AmicalSat 1 46287U 20061R 22272.43706463 .00005650 00000-0 31842-3 0 9991 2 46287 97.4367 339.7019 0000892 281.4023 78.7109 15.13583959114193 SALSAT 1 46495U 20068K 22272.56846244 .00003191 00000-0 22936-3 0 9997 2 46495 97.7372 213.9582 0014407 287.0574 72.9074 15.04922271109848 BY70-3 1 46839U 20079N 22272.46800110 .00032625 00000-0 66005-3 0 9991 2 46839 97.1892 343.4398 0003806 320.6748 166.5230 15.46376877106294 CAPE 3 1 47309U 21002A 22272.49484746 .00010845 00000-0 41395-3 0 9992 2 47309 60.6841 332.7104 0038261 44.6942 315.7219 15.26501252 94324 AO-109 1 47311U 21002C 22272.51754545 .00009516 00000-0 36277-3 0 9991 2 47311 60.6853 330.0827 0034125 44.7615 315.6218 15.26810625 94354 MiTEE 1 1 47314U 21002F 22272.57759256 .00022612 00000-0 68988-3 0 9990 2 47314 60.6815 319.8732 0031928 37.2634 323.0665 15.33446723 94543 ExoCube 2 1 47319U 21002L 22272.48129260 .00008580 00000-0 33245-3 0 9997 2 47319 60.6843 331.5300 0035457 45.7729 314.6261 15.26343485 94283 UVSQ-SAT 1 47438U 21006AB 22272.42272581 .00006385 00000-0 32845-3 0 9998 2 47438 97.4261 329.3096 0009957 273.7419 86.2675 15.16746518 93035 YUSAT 1 1 47439U 21006AC 22272.09324873 .00008419 00000-0 42426-3 0 9990 2 47439 97.4268 329.1732 0009699 274.5930 85.4195 15.17372547 92998 SOMP 2b 1 47445U 21006AJ 22272.57714549 .00007776 00000-0 40361-3 0 9994 2 47445 97.4231 329.0347 0009731 278.2441 81.7689 15.16358239 93046 IDEASSat 1 47458U 21006AX 22272.43825332 .00006705 00000-0 35031-3 0 9995 2 47458 97.4321 329.4911 0008889 277.2141 82.8082 15.16183759 93019 CubeSX-Sirius-HSE 1 47951U 21022V 22272.49466649 .00003942 00000-0 25779-3 0 9997 2 47951 97.5171 169.8100 0021596 145.8531 318.8068 15.08168089 83677 CubeSX-HSE 1 47952U 21022W 22272.49040772 .00004771 00000-0 31065-3 0 9999 2 47952 97.5173 169.8343 0021210 145.2845 26.4180 15.08229691 83678 KSU-Cubesat 1 47954U 21022Y 22272.47141613 .00006293 00000-0 40507-3 0 9997 2 47954 97.5170 169.9613 0021151 145.2741 214.9873 15.08528719 83404 GRBAlpha 1 47959U 21022AD 22272.48717674 .00005051 00000-0 32829-3 0 9998 2 47959 97.5174 169.8773 0021309 146.0559 28.5133 15.08266053 82496 Orbicraft-Zorkiy 1 47960U 21022AE 22272.50361105 .00004617 00000-0 29897-3 0 9995 2 47960 97.5199 170.0765 0020979 144.8481 318.2628 15.08457393 83197 STECCO 1 47962U 21022AG 22272.50690573 .00007321 00000-0 44303-3 0 9995 2 47962 97.5163 171.0444 0016346 136.4642 328.2482 15.10807271 82571 DO-111 1 47963U 21022AH 22272.25264493 .00018199 00000-0 93602-3 0 9997 2 47963 97.5192 172.5448 0017801 127.4154 232.8702 15.16363374 82661 MO-110 1 47964U 21022AJ 22272.43891484 .00007339 00000-0 43852-3 0 9990 2 47964 97.5171 171.3035 0019402 134.0962 226.1868 15.11222923 82587 FEES 1 48082U 21022AL 22272.51960335 .00011773 00000-0 68326-3 0 9993 2 48082 97.5181 171.4197 0015713 129.1159 231.1471 15.12190862 82307 RamSat 1 48850U 98067SL 22272.06592064 .00466801 10334-3 95987-3 0 9992 2 48850 51.6302 140.7148 0005765 212.5662 147.4992 15.98695215 73711 TUBIN 1 48900U 21059X 22272.44414339 .00003881 00000-0 21364-3 0 9994 2 48900 97.5673 41.0356 0011236 103.3961 300.9645 15.14588033 69656 IT-SPINS 1 49017U 21013G 22272.22166025 .00009215 00000-0 34150-3 0 9990 2 49017 51.5969 262.4460 0009227 86.6668 273.5367 15.28296313 69640 LEDSAT 1 49069U 21073D 22272.15889375 .00004772 00000-0 30072-3 0 9997 2 49069 97.5153 342.9953 0025400 300.5040 59.3682 15.09359575 61478 CUTE 1 49263U 21088D 22272.42325054 .00004396 00000-0 32277-3 0 9999 2 49263 97.5778 338.2647 0021119 73.0171 287.3367 15.03791984 55042 Binar-1 1 49272U 98067SR 22272.00317875 .02675812 11904-4 10894-2 0 9994 2 49272 51.6156 142.3843 0009529 251.1581 108.8405 16.22512308 56077 TeikyoSat 4 1 49396U 21102B 22272.43909337 .00002075 00000-0 16732-3 0 9996 2 49396 97.5301 327.2153 0015084 266.6549 93.2950 15.00883762 48647 Z-Sat 1 49399U 21102E 22272.57517140 .00002943 00000-0 22288-3 0 9998 2 49399 97.5258 328.4616 0022385 234.9971 124.9154 15.02861911 48728 KOSEN 1 1 49402U 21102H 22272.42900112 .00002940 00000-0 21616-3 0 9993 2 49402 97.5197 328.5158 0021002 224.0307 135.9247 15.04001786 48739 HO-113 1 50466U 21131B 22272.57598531 .00000300 00000-0 11268-3 0 9991 2 50466 98.5744 349.7512 0004643 184.5535 175.5611 14.38531253 39888 Tevel 1 50999U 22002R 22272.58159034 .00008521 00000-0 44421-3 0 9992 2 50999 97.4718 338.0075 0012109 63.7292 45.9670 15.16155202 39199 Grizu-263a 1 51025U 22002AT 22272.17074674 .00014846 00000-0 70729-3 0 9991 2 51025 97.4878 338.7898 0013183 68.2533 292.0103 15.19148871 39179 NO-116 1 51031U 22002AZ 22272.15658335 .00010419 00000-0 52057-3 0 9994 2 51031 97.4833 338.3486 0013652 67.8667 292.4014 15.17570646 39150 IRIS-A 1 51044U 22002BN 22272.44493927 .00005181 00000-0 28701-3 0 9993 2 51044 97.4721 337.4422 0010526 69.8852 290.3511 15.14198652 39143 DELFI-PQ 1 51074U 22002CU 22272.17118909 .00011337 00000-0 53941-3 0 9994 2 51074 97.4961 339.3715 0014558 94.6135 265.6763 15.19241117 39196 SO-115 1 51080U 22002DA 22271.42261364 .00009849 00000-0 48733-3 0 9990 2 51080 97.4914 338.4168 0013891 94.2576 266.0245 15.17925927 39069 SO-114 1 51081U 22002DB 22271.62072719 .00009827 00000-0 48592-3 0 9996 2 51081 97.4944 338.5895 0015092 96.7879 263.5073 15.17932754 39099 OreSat0 1 52017U 22026K 22272.47948023 .00008852 00000-0 45780-3 0 9999 2 52017 97.5074 271.0859 0024529 274.0396 85.8033 15.16227994 29941 Planetum 1 1 52738U 22057G 22272.52649619 .00008076 00000-0 46196-3 0 9998 2 52738 97.5214 25.5754 0008551 165.1818 194.9665 15.12896356 19165 Foresail-1 1 52766U 22057AL 22272.36821543 .00005454 00000-0 30318-3 0 9995 2 52766 97.5309 25.8289 0014251 150.1698 282.3350 15.14016770 19159 SNUGLITE 2 1 52899U 22065F 22272.37675103 .00000664 00000-0 15282-3 0 9992 2 52899 98.0331 60.2301 0007332 318.6769 41.3885 14.58437410 12847 CTIM 1 52950U 22074G 22272.52366379 .00017060 00000-0 67514-3 0 9992 2 52950 45.0063 353.0605 0003747 9.1089 351.0005 15.25285931 13617 GREENCUBE 1 53106U 22080B 22270.63842984 -.00000003 00000-0 00000-0 0 9998 2 53106 70.1628 50.9274 0008650 240.4290 119.5508 6.42557874 4885 AstroBioCubeSat 1 53107U 22080C 22266.48607895 -.00000003 00000-0 00000-0 0 9997 2 53107 70.1533 52.4263 0013185 234.4876 125.4505 6.42111079 4525 CELESTA 1 53111U 22080G 22255.16019017 -.00000003 00000-0 00000+0 0 9997 2 53111 70.1086 56.1818 0009300 227.1361 132.8517 6.42544045 3765 RS4S 1 53306U 98067TR 22272.45542971 .00058130 00000-0 82860-3 0 9993 2 53306 51.6394 178.7673 0002021 217.5372 142.5478 15.55738943 10853 RS3S 1 53308U 98067TT 22272.45569157 .00057681 00000-0 82484-3 0 9992 2 53308 51.6395 178.7688 0002259 211.3316 148.7541 15.55654707 10916 RS1S 1 53309U 98067TU 22272.45217882 .00060148 00000-0 85352-3 0 9997 2 53309 51.6389 178.7433 0001841 230.7171 129.3657 15.55846683 10861 RS5S 1 53310U 98067TV 22272.45532827 .00057482 00000-0 82180-3 0 9991 2 53310 51.6394 178.7672 0001690 226.7870 133.2980 15.55663248 10897 RS6S 1 53311U 98067TW 22272.44646366 .00063023 00000-0 88658-3 0 9999 2 53311 51.6384 178.7044 0002663 202.8266 157.2608 15.56060663 10914 RS9S 1 53312U 98067TX 22272.45025163 .00060228 00000-0 85454-3 0 9992 2 53312 51.6391 178.7321 0001760 238.1971 121.8849 15.55849697 10851 RS12S 1 53313U 98067TY 22272.44833354 .00058711 00000-0 83222-3 0 9996 2 53313 51.6391 178.7197 0001388 225.6859 134.4018 15.55886936 10906 JAGSAT 1 53771U 98067UJ 22272.46850562 .00072409 00000-0 11139-2 0 9993 2 53771 51.6407 179.6032 0001926 328.1441 31.9432 15.53558964 3597 /EX
